Sidney, NE

2:04 PM MDT on September 25, 2016 (GMT -0600)
Sidney Municipal

Weather History for KSNY - May, 2013

Change the Weather History Date:

Wednesday, May 8, 2013

  Actual Average Record
Temperature  
Mean Temperature 56 °F 55 °F  
Max Temperature 71 °F 70 °F 88 °F (2011)
Min Temperature 40 °F 41 °F 25 °F (2010)
Degree Days  
Heating Degree Days 9 10  
Month to date heating degree days 170 89  
Since 1 July heating degree days 6520 6001  
Cooling Degree Days 0 0  
Month to date cooling degree days 0 0  
Year to date cooling degree days 0 1  
Growing Degree Days 8 (Base 50)    
Moisture  
Dew Point 44 °F    
Average Humidity 64    
Maximum Humidity 100    
Minimum Humidity 28    
Precipitation  
Precipitation T in 0.09 in 0.86 in (1957)
Month to date precipitation 0.19 0.81  
Year to date precipitation 2.37 4.48  
Sea Level Pressure  
Sea Level Pressure 29.94 in    
Wind  
Wind Speed 9 mph (South)    
Max Wind Speed 28 mph    
Max Gust Speed 33 mph    
Visibility 6 miles    
Events Fog , Rain , Thunderstorm    
T = Trace of Precipitation, MM = Missing Value Source: NWS Daily Summary

Daily Weather History Graph

Daily Weather History Graph

Search for Another Location

Airport or City:

Trip Planner

Search our weather history database for the weather conditions in past years. The results will help you decide how hot, cold, wet, or windy it might be!

Date:

Astronomy

May. 08, 2013 Rise Set
Actual Time 5:40 AM MDT 7:56 PM MDT
Civil Twilight 5:10 AM MDT 8:27 PM MDT
Nautical Twilight 4:32 AM MDT 9:05 PM MDT
Astronomical Twilight 3:51 AM MDT 9:47 PM MDT
Moon 4:50 AM MDT (5/8) 6:56 PM MDT (5/8)
Length of Visible Light 15h 17m
Length of Day
14h 15m
Waning Crescent, 2% of the Moon is Illuminated
May 8
Waning Crescent
May 9
New
May 17
First Quarter
May 24
Full
May 31
Last Quarter

Hourly Weather History & Observations

Time (MDT) Temp. Windchill Dew Point Humidity Pressure Visibility Wind Dir Wind Speed Gust Speed Precip Events Conditions
12:53 AM 46.0 °F 43.9 °F 39.9 °F 79% 29.89 in 10.0 mi SSE 4.6 mph - N/A   Clear
1:53 AM 46.0 °F 43.9 °F 44.1 °F 93% 29.88 in 6.0 mi SSE 4.6 mph - N/A   Clear
2:10 AM 46.4 °F 44.3 °F 44.6 °F 93% 29.95 in 2.5 mi SSE 4.6 mph - N/A   Partly Cloudy
2:16 AM 46.4 °F 43.5 °F 44.6 °F 93% 29.95 in 1.0 mi SSE 5.8 mph - N/A   Mist
2:27 AM 46.4 °F 44.3 °F 46.4 °F 100% 29.94 in 0.8 mi South 4.6 mph - N/A   Mostly Cloudy
2:53 AM 46.0 °F - 45.0 °F 96% 29.86 in 0.2 mi Calm Calm - N/A Fog Fog
3:34 AM 46.4 °F 45.2 °F 44.6 °F 93% 29.94 in 2.0 mi NW 3.5 mph - N/A   Overcast
3:41 AM 46.4 °F - 44.6 °F 93% 29.95 in 1.0 mi Calm Calm - N/A   Mist
3:48 AM 46.4 °F - 46.4 °F 100% 29.95 in 0.5 mi Calm Calm - N/A Fog Fog
3:53 AM 46.9 °F - 46.0 °F 97% 29.86 in 0.2 mi Calm Calm - N/A Fog Fog
4:53 AM 48.0 °F - 46.9 °F 96% 29.87 in 0.2 mi South 4.6 mph - N/A Fog Fog
5:53 AM 46.9 °F - 46.9 °F 100% 29.90 in 0.2 mi SW 5.8 mph - N/A Fog Fog
6:53 AM 46.9 °F - 46.0 °F 97% 29.92 in 0.2 mi WSW 3.5 mph - N/A Fog Fog
7:53 AM 46.9 °F - 46.9 °F 100% 29.93 in 0.2 mi Calm Calm - N/A Fog Fog
8:21 AM 48.2 °F - 48.2 °F 100% 29.99 in 1.2 mi SW 5.8 mph - N/A   Overcast
8:27 AM 50.0 °F - 48.2 °F 94% 29.98 in 3.0 mi SSW 3.5 mph - N/A   Mostly Cloudy
8:41 AM 51.8 °F - 50.0 °F 94% 29.99 in 9.0 mi WSW 4.6 mph - N/A   Scattered Clouds
8:53 AM 52.0 °F - 50.0 °F 93% 29.94 in 10.0 mi West 3.5 mph - N/A   Clear
9:53 AM 62.1 °F - 45.0 °F 53% 29.91 in 10.0 mi North 4.6 mph - N/A   Clear
10:53 AM 66.9 °F - 43.0 °F 42% 29.91 in 10.0 mi East 9.2 mph - N/A   Clear
11:53 AM 70.0 °F - 43.0 °F 38% 29.91 in 10.0 mi East 10.4 mph 16.1 mph N/A   Clear
12:53 PM 71.1 °F - 43.0 °F 36% 29.89 in 10.0 mi East 11.5 mph 17.3 mph N/A   Scattered Clouds
1:53 PM 69.1 °F - 43.0 °F 39% 29.89 in 10.0 mi ESE 12.7 mph 18.4 mph N/A   Partly Cloudy
2:21 PM 69.8 °F - 44.6 °F 40% 29.96 in 10.0 mi ESE 12.7 mph - N/A Thunderstorm Clear
2:53 PM 69.1 °F - 42.1 °F 38% 29.88 in 10.0 mi East 20.7 mph 25.3 mph N/A Thunderstorm Scattered Clouds
3:40 PM 68.0 °F - 37.4 °F 33% 29.96 in 10.0 mi ENE 18.4 mph 26.5 mph N/A   Mostly Cloudy
3:53 PM 68.0 °F - 37.0 °F 32% 29.87 in 10.0 mi East 16.1 mph - N/A   Partly Cloudy
4:53 PM 69.1 °F - 36.0 °F 30% 29.88 in 10.0 mi ENE 16.1 mph - N/A   Mostly Cloudy
5:38 PM 55.4 °F - 42.8 °F 63% 30.01 in 10.0 mi SW 17.3 mph 28.8 mph N/A   Overcast
5:53 PM 55.0 °F - 44.1 °F 67% 29.97 in 10.0 mi SW 19.6 mph 33.4 mph N/A   Overcast
6:53 PM 52.0 °F - 46.0 °F 80% 29.99 in 10.0 mi West 18.4 mph - 0.00 in Rain Light Rain
7:53 PM 51.1 °F - 46.0 °F 83% 30.01 in 10.0 mi West 10.4 mph - 0.00 in   Overcast
8:53 PM 48.0 °F - 44.1 °F 86% 30.01 in 10.0 mi NW 12.7 mph - N/A   Clear
9:53 PM 48.0 °F - 44.1 °F 86% 30.01 in 10.0 mi NW 12.7 mph - N/A   Clear
10:53 PM 46.9 °F - 43.0 °F 86% 29.99 in 10.0 mi NW 9.2 mph - N/A   Partly Cloudy
11:53 PM 46.0 °F 41.9 °F 41.0 °F 83% 29.99 in 10.0 mi NNW 8.1 mph - N/A   Clear